This is the latest recevied weather packets stored in our database for station/object F4IVW-13. If no packets are shown the sender has not sent any weather packets the latest 1 day(s).
| Time | Temp. | Humidity | Pressure | Rain* | Wind** | Luminosity | Snow |
|---|---|---|---|---|---|---|---|
| 1777996015 | 17.22° C | 99% | 1013.4 hPa | 0 mm | 0 m/s | 2 W/m² | - |
| 1777995696 | 18.33° C | 99% | 1013.4 hPa | 0 mm | 0 m/s | 6 W/m² | - |
| 1777995385 | 17.22° C | 99% | 1013.5 hPa | 0 mm | 0 m/s | 2 W/m² | - |
| 1777995062 | 16.67° C | 99% | 1013.3 hPa | 0 mm | 0 m/s | 12 W/m² | - |
| 1777994745 | 16.67° C | 99% | 1013.4 hPa | 0 mm | 0 m/s | 13 W/m² | - |
| 1777994105 | 16.11° C | 99% | 1013.4 hPa | 0 mm | 0 m/s | 9 W/m² | - |
| 1777993791 | 16.67° C | 99% | 1013.4 hPa | 0 mm | 0 m/s | 6 W/m² | - |
| 1777993476 | 16.67° C | 99% | 1013.4 hPa | 0 mm | 0 m/s | 7 W/m² | - |
| 1777993154 | 17.22° C | 99% | 1013.4 hPa | 0 mm | 0 m/s | 12 W/m² | - |
| 1777992518 | 17.78° C | 99% | 1013.5 hPa | 0 mm | 0 m/s | 6 W/m² | - |
| 1777992198 | 17.22° C | 99% | 1013.4 hPa | 0 mm | 0 m/s | 7 W/m² | - |
| 1777991878 | 16.67° C | 99% | 1013.4 hPa | 0 mm | 0 m/s | 6 W/m² | - |
| 1777991561 | 16.67° C | 99% | 1013.4 hPa | 0 mm | 0 m/s | 8 W/m² | - |
| 1777991255 | 16.67° C | 99% | 1013.5 hPa | 0 mm | 0 m/s | 9 W/m² | - |
| 1777990925 | 16.67° C | 99% | 1013.5 hPa | 0 mm | 0 m/s | 6 W/m² | - |
| 1777990613 | 17.22° C | 99% | 1013.5 hPa | 0 mm | 0 m/s | 5 W/m² | - |
| 1777990292 | 17.22° C | 99% | 1013.5 hPa | 0 mm | 0 m/s | 4 W/m² | - |
| 1777989971 | 16.11° C | 99% | 1013.6 hPa | 0 mm | 0 m/s | 6 W/m² | - |
| 1777989657 | 15° C | 99% | 1013.7 hPa | 0 mm | 0 m/s | 47 W/m² | - |
| 1777989028 | 15° C | 99% | 1013.8 hPa | 0 mm | 0 m/s | 19 W/m² | - |
| 1777988704 | 15.56° C | 99% | 1013.8 hPa | 0 mm | 0 m/s | 5 W/m² | - |
| 1777988387 | 16.11° C | 99% | 1013.8 hPa | 0 mm | 0 m/s | 5 W/m² | - |
| 1777988063 | 16.11° C | 99% | 1013.9 hPa | 0 mm | 0 m/s | 14 W/m² | - |
| 1777987753 | 15.56° C | 99% | 1013.8 hPa | 0 mm | 0 m/s | 67 W/m² | - |
| 1777987426 | 16.11° C | 99% | 1013.8 hPa | 0 mm | 0 m/s | 19 W/m² | - |
* Rain latest hour (hover to see other rain measurements)
** Current wind speed in m/s (hover to see current wind gust speed)